period_start,C,m1,H,J0,J1,J2,J3,J4,J5,JA,JB,JC,JD,JJ,JK,JN,#
2015-02-16 00:01:34,0.18,4.96,0.00,24.21,27.24,30.16,4.72,28.03,1015.39,2030.76,1902.85,2189.36,2361.89,350.00,345.80,22.04,0000 0000 0000 0000 000000
2015-02-16 00:06:36,0.16,4.97,0.00,23.94,27.25,30.16,4.72,28.07,1015.35,2030.64,1901.74,2188.58,2361.01,350.03,346.37,22.07,0000 0000 0000 0000 000000
2015-02-16 00:11:37,0.11,4.97,0.00,23.65,27.25,30.21,4.79,28.20,1015.32,2030.52,1900.70,2187.84,2360.10,350.52,347.09,22.10,0000 0000 0000 0000 000000
2015-02-16 00:16:39,0.12,4.98,0.00,23.62,27.24,30.21,4.80,28.16,1015.33,2030.33,1899.63,2187.02,2359.23,350.33,346.87,22.13,0000 0000 0000 0000 000000
2015-02-16 00:21:40,0.19,4.98,0.00,23.94,27.22,30.12,4.75,27.97,1015.20,2030.36,1898.74,2186.20,2358.40,350.27,346.44,22.16,0000 0000 0000 0000 000000
2015-02-16 00:26:41,0.19,4.98,0.00,24.21,27.22,30.12,4.71,27.93,1015.24,2030.50,1897.81,2185.54,2357.62,349.56,345.27,22.19,0000 0000 0000 0000 000000
2015-02-16 00:31:42,0.18,4.99,0.00,24.30,27.22,30.12,4.78,28.06,1015.49,2030.64,1896.68,2184.82,2356.82,350.39,346.21,22.22,0000 0000 0000 0000 000000
2015-02-16 00:36:44,0.19,5.00,0.00,24.29,27.22,30.13,4.77,28.00,1015.63,2030.74,1895.61,2184.03,2356.00,350.21,345.96,22.25,0000 0000 0000 0000 000000
2015-02-16 00:41:45,0.17,5.00,0.00,24.26,27.22,30.13,4.74,28.14,1015.64,2030.74,1894.56,2183.24,2355.12,350.00,345.78,22.28,0000 0000 0000 0000 000000
2015-02-16 00:46:46,0.16,5.01,0.00,23.97,27.22,30.08,4.74,27.90,1015.63,2030.65,1893.60,2182.51,2354.27,350.03,346.27,22.31,0000 0000 0000 0000 000000
2015-02-16 00:51:48,0.07,5.01,0.00,24.19,27.24,29.94,4.75,28.05,1015.63,2030.34,1892.69,2181.82,2353.46,350.30,346.24,22.34,0000 0000 0000 0000 000000
2015-02-16 00:56:49,0.13,5.01,0.00,24.29,27.25,29.94,4.73,27.97,1015.64,2030.18,1891.66,2181.00,2352.62,349.95,345.97,22.37,0000 0000 0000 0000 000000
2015-02-16 01:01:50,0.19,5.02,0.00,24.30,27.25,30.01,4.75,28.02,1015.64,2030.18,1890.65,2180.15,2351.85,349.88,345.88,22.40,0000 0000 0000 0000 000000
2015-02-16 01:10:05,0.15,5.03,0.00,24.24,27.27,30.14,4.75,28.04,1015.65,2030.08,1888.97,2178.99,2350.35,349.86,345.78,22.44,0000 0000 0000 0000 000000
2015-02-16 01:15:06,0.19,5.03,0.00,23.93,27.28,30.24,4.75,28.02,1015.66,2030.10,1887.97,2178.14,2349.55,350.06,346.29,22.47,0000 0000 0000 0000 000000
2015-02-16 01:20:07,0.21,5.04,0.00,23.74,27.30,30.31,4.77,28.23,1015.65,2030.02,1886.77,2177.31,2348.57,350.38,346.86,22.50,0000 0000 0000 0000 000000
2015-02-16 01:25:09,0.18,5.04,0.00,23.50,27.30,30.18,4.73,28.28,1015.64,2030.02,1885.59,2176.54,2347.72,349.78,346.65,22.53,0000 0000 0000 0000 000000
2015-02-16 01:30:10,0.19,5.05,0.00,23.23,27.30,30.01,4.76,28.27,1015.65,2030.01,1884.52,2175.64,2346.78,350.24,347.18,22.56,0000 0000 0000 0000 000000
2015-02-16 01:35:11,0.13,5.05,0.00,22.92,27.27,29.71,4.82,28.29,1015.66,2030.02,1883.41,2174.99,2345.98,349.55,347.07,22.59,0000 0000 0000 0000 000000
2015-02-16 01:40:13,0.20,5.06,0.00,22.80,27.26,29.62,4.80,28.19,1015.67,2030.02,1882.28,2174.17,2345.09,349.62,347.23,22.62,0000 0000 0000 0000 000000
2015-02-16 01:45:14,0.19,5.06,0.00,22.72,27.23,29.59,4.84,28.21,1015.66,2030.09,1881.19,2173.56,2344.28,349.85,347.49,22.65,0000 0000 0000 0000 000000
2015-02-16 01:50:15,0.16,5.07,0.00,22.94,27.20,29.87,4.80,28.23,1015.71,2030.21,1880.23,2172.91,2343.60,350.10,347.28,22.68,0000 0000 0000 0000 000000
2015-02-16 01:55:17,0.24,5.08,0.00,23.47,27.17,29.94,4.78,28.29,1015.80,2030.61,1879.36,2172.08,2342.83,349.73,346.64,22.71,0000 0000 0000 0000 000000
2015-02-16 02:00:18,0.15,5.08,0.00,24.10,27.17,29.79,4.75,28.03,1015.72,2030.58,1878.38,2171.35,2341.95,350.05,346.21,22.74,0000 0000 0000 0000 000000
2015-02-16 02:05:20,0.16,5.08,0.00,24.18,27.17,29.65,4.76,28.02,1015.68,2030.40,1877.38,2170.54,2341.04,350.28,346.07,22.77,0000 0000 0000 0000 000000
2015-02-16 02:10:21,0.15,5.09,0.00,23.87,27.19,29.73,4.74,28.05,1015.69,2030.40,1876.25,2169.83,2340.15,350.35,346.81,22.80,0000 0000 0000 0000 000000
2015-02-16 02:15:22,0.12,5.09,0.00,23.65,27.20,30.03,4.83,28.17,1015.66,2030.22,1875.17,2168.97,2339.24,350.28,346.83,22.83,0000 0000 0000 0000 000000
2015-02-16 02:20:24,0.17,5.10,0.00,23.65,27.21,30.25,4.80,28.08,1015.65,2030.07,1874.01,2168.09,2338.41,350.41,346.84,22.85,0000 0000 0000 0000 000000
2015-02-16 02:25:25,0.18,5.10,0.00,23.64,27.22,30.25,4.77,28.14,1015.66,2030.07,1873.03,2167.32,2337.60,349.70,346.41,22.88,0000 0000 0000 0000 000000
2015-02-16 02:30:26,0.16,5.11,0.00,23.60,27.22,30.26,4.78,28.30,1015.66,2030.09,1871.98,2166.64,2336.83,349.63,346.45,22.91,0000 0000 0000 0000 000000
2015-02-16 02:35:28,0.13,5.11,0.00,23.56,27.22,30.23,4.76,28.25,1015.65,2030.07,1870.85,2165.93,2336.01,349.58,346.43,22.94,0000 0000 0000 0000 000000
2015-02-16 02:40:29,0.20,5.12,0.00,23.60,27.22,30.20,4.88,28.29,1015.64,2030.06,1869.79,2165.09,2335.13,350.25,346.88,22.97,0000 0000 0000 0000 000000
2015-02-16 02:45:31,0.23,5.12,0.00,23.55,27.21,30.18,4.79,28.34,1015.64,2030.31,1868.92,2164.43,2334.38,350.15,346.95,23.00,0000 0000 0000 0000 000000
2015-02-16 02:50:32,0.11,5.13,0.00,23.55,27.20,30.18,4.80,28.23,1015.64,2030.47,1868.07,2163.94,2333.78,349.93,346.70,23.03,0000 0000 0000 0000 000000
2015-02-16 02:55:33,0.15,5.13,0.00,23.74,27.20,30.11,4.80,28.20,1015.64,2030.40,1867.24,2163.12,2333.02,350.16,346.49,23.06,0000 0000 0000 0000 000000
2015-02-16 03:00:35,0.26,5.14,0.00,24.03,27.19,30.09,4.69,28.14,1015.64,2030.67,1866.33,2162.53,2332.18,349.80,345.95,23.09,0000 0000 0000 0000 000000
2015-02-16 03:05:36,0.16,5.14,0.00,24.22,27.18,30.07,4.77,28.14,1015.64,2030.88,1865.32,2161.96,2331.59,349.87,345.99,23.12,0000 0000 0000 0000 000000
2015-02-16 03:10:37,0.13,5.15,0.00,24.25,27.17,30.00,4.69,28.02,1015.64,2030.96,1864.71,2161.19,2330.94,349.66,345.76,23.15,0000 0000 0000 0000 000000
2015-02-16 03:15:38,0.18,5.15,0.00,24.12,27.17,29.95,4.76,28.03,1015.64,2030.94,1863.68,2160.60,2330.09,350.16,346.39,23.18,0000 0000 0000 0000 000000
2015-02-16 03:20:40,0.16,5.16,0.00,23.85,27.17,30.06,4.78,28.09,1015.64,2030.98,1862.47,2159.90,2329.27,350.30,346.74,23.21,0000 0000 0000 0000 000000
2015-02-16 03:25:41,0.17,5.16,0.00,23.64,27.17,30.16,4.72,27.98,1015.63,2030.98,1861.50,2159.08,2328.65,350.03,346.35,23.24,0000 0000 0000 0000 000000
2015-02-16 03:30:43,0.15,5.17,0.00,23.58,27.17,30.14,4.76,28.08,1015.58,2030.97,1860.66,2158.41,2327.89,350.01,346.67,23.26,0000 0000 0000 0000 000000
2015-02-16 03:35:44,0.12,5.17,0.00,23.53,27.16,30.09,4.85,28.22,1015.45,2030.98,1859.69,2157.81,2327.07,350.84,347.41,23.29,0000 0000 0000 0000 000000
2015-02-16 03:40:45,0.17,5.18,0.00,23.52,27.15,30.08,4.80,28.21,1015.21,2030.98,1858.74,2157.04,2326.27,349.96,346.80,23.32,0000 0000 0000 0000 000000
2015-02-16 03:45:47,0.15,5.18,0.00,23.50,27.14,30.05,4.77,28.27,1015.23,2030.99,1857.90,2156.38,2325.66,350.31,346.85,23.35,0000 0000 0000 0000 000000
2015-02-16 03:50:48,0.10,5.19,0.00,23.45,27.12,30.05,4.80,28.22,1015.44,2030.99,1857.03,2155.87,2324.97,350.01,346.69,23.38,0000 0000 0000 0000 000000
2015-02-16 03:55:49,0.17,5.19,0.00,23.60,27.11,29.99,4.77,28.13,1015.60,2030.99,1856.13,2155.06,2324.15,349.66,346.22,23.41,0000 0000 0000 0000 000000
2015-02-16 04:00:50,0.16,5.19,0.00,23.91,27.10,29.99,4.79,28.21,1015.63,2030.99,1855.34,2154.54,2323.64,349.89,346.22,23.44,0000 0000 0000 0000 000000
2015-02-16 04:05:52,0.07,5.20,0.00,24.13,27.10,29.96,4.74,28.19,1015.63,2031.00,1854.74,2153.97,2322.93,350.11,346.03,23.47,0000 0000 0000 0000 000000
2015-02-16 04:10:53,0.17,5.20,0.00,24.24,27.09,29.88,4.69,28.12,1015.63,2031.02,1853.91,2153.17,2322.11,349.23,345.14,23.50,0000 0000 0000 0000 000000
2015-02-16 04:15:54,0.15,5.21,0.00,24.20,27.09,29.72,4.70,28.12,1015.64,2031.01,1853.05,2152.66,2321.50,349.61,345.45,23.53,0000 0000 0000 0000 000000
2015-02-16 04:20:55,0.12,5.21,0.00,24.10,27.09,29.85,4.67,28.07,1015.64,2031.01,1852.15,2151.99,2320.81,349.38,345.65,23.56,0000 0000 0000 0000 000000
2015-02-16 04:25:56,0.18,5.22,0.00,24.18,27.10,29.87,4.71,28.09,1015.64,2031.03,1851.33,2151.22,2320.02,349.93,346.01,23.59,0000 0000 0000 0000 000000
2015-02-16 04:30:58,0.16,5.22,0.00,24.09,27.10,29.95,4.77,28.07,1015.64,2031.02,1850.36,2150.61,2319.20,349.93,345.93,23.62,0000 0000 0000 0000 000000
2015-02-16 04:35:59,0.12,5.22,0.00,23.97,27.10,30.00,4.73,28.11,1015.65,2031.00,1849.51,2149.93,2318.58,350.07,346.11,23.65,0000 0000 0000 0000 000000
2015-02-16 04:41:00,0.17,5.23,0.00,23.67,27.12,30.13,4.74,28.00,1015.67,2031.00,1848.50,2149.11,2317.81,350.11,346.73,23.67,0000 0000 0000 0000 000000
2015-02-16 04:46:02,0.13,5.23,0.00,23.54,27.12,30.18,4.77,28.17,1015.79,2031.01,1847.71,2148.60,2317.05,349.70,346.44,23.70,0000 0000 0000 0000 000000
2015-02-16 04:51:03,0.11,5.24,0.00,23.51,27.12,30.11,4.72,28.15,1015.73,2031.00,1846.90,2148.00,2316.32,349.67,346.46,23.73,0000 0000 0000 0000 000000
2015-02-16 04:56:04,0.16,5.24,0.00,23.48,27.10,30.04,4.72,28.11,1015.66,2031.01,1846.02,2147.26,2315.77,349.02,345.77,23.76,0000 0000 0000 0000 000000
2015-02-16 05:01:06,0.12,5.25,0.00,23.62,27.10,30.02,4.76,28.01,1015.65,2031.01,1845.14,2146.86,2315.03,349.71,346.41,23.79,0000 0000 0000 0000 000000
2015-02-16 05:06:07,0.18,5.25,0.00,23.95,27.10,30.00,4.73,28.01,1015.65,2031.07,1844.37,2146.07,2314.35,349.58,345.76,23.82,0000 0000 0000 0000 000000
2015-02-16 05:11:09,0.15,5.25,0.00,24.18,27.09,29.98,4.78,28.11,1015.64,2031.06,1843.52,2145.44,2313.72,350.30,346.24,23.85,0000 0000 0000 0000 000000
2015-02-16 05:16:10,0.11,5.26,0.00,24.25,27.09,29.85,4.73,28.11,1015.67,2031.04,1842.65,2144.87,2312.99,349.61,345.67,23.88,0000 0000 0000 0000 000000
2015-02-16 05:21:11,0.16,5.27,0.00,24.19,27.09,29.77,4.73,28.04,1015.83,2031.06,1841.79,2144.07,2312.19,350.24,346.25,23.91,0000 0000 0000 0000 000000
2015-02-16 05:26:13,0.14,5.27,0.00,24.16,27.10,29.84,4.78,28.17,1016.09,2031.04,1840.94,2143.55,2311.64,350.25,346.43,23.94,0000 0000 0000 0000 000000
2015-02-16 05:31:14,0.12,5.27,0.00,24.09,27.10,29.88,4.78,28.15,1016.02,2031.02,1840.06,2142.88,2310.90,350.12,346.32,23.97,0000 0000 0000 0000 000000
2015-02-16 05:36:16,0.18,5.28,0.00,23.80,27.10,30.01,4.79,28.00,1015.88,2031.01,1839.16,2142.06,2310.06,349.88,346.42,24.00,0000 0000 0000 0000 000000
2015-02-16 05:41:17,0.19,5.28,0.00,23.59,27.11,30.14,4.76,28.19,1015.88,2031.01,1838.17,2141.29,2309.22,350.01,346.88,24.03,0000 0000 0000 0000 000000
2015-02-16 05:46:18,0.13,5.29,0.00,23.54,27.11,30.08,4.90,28.31,1015.97,2031.00,1837.27,2140.80,2308.60,350.63,347.29,24.06,0000 0000 0000 0000 000000
2015-02-16 05:51:20,0.13,5.29,0.00,23.55,27.10,30.02,4.80,28.14,1015.81,2031.01,1836.45,2140.04,2307.96,350.32,347.12,24.08,0000 0000 0000 0000 000000
2015-02-16 05:56:21,0.16,5.30,0.00,23.68,27.10,30.01,4.76,28.11,1015.78,2031.03,1835.75,2139.48,2307.14,349.71,346.58,24.11,0000 0000 0000 0000 000000
2015-02-16 06:01:22,0.16,5.30,0.00,23.53,27.11,29.98,4.77,28.31,1015.69,2031.03,1834.85,2138.61,2306.49,349.38,346.21,24.14,0000 0000 0000 0000 000000
2015-02-16 06:06:23,0.09,5.31,0.00,23.85,27.12,29.75,4.81,28.12,1015.73,2031.02,1834.03,2137.95,2305.80,351.01,347.40,24.17,0000 0000 0000 0000 000000
2015-02-16 06:11:25,0.18,5.31,0.00,24.20,27.15,29.64,4.73,28.12,1015.89,2031.00,1833.22,2137.10,2304.91,349.36,345.49,24.20,0000 0000 0000 0000 000000
2015-02-16 06:16:26,0.19,5.32,0.00,23.99,27.18,29.71,4.72,28.12,1015.89,2031.00,1832.15,2136.25,2304.05,349.67,346.04,24.23,0000 0000 0000 0000 000000
2015-02-16 06:21:27,0.20,5.32,0.00,23.52,27.20,30.21,4.70,28.19,1015.97,2030.99,1831.00,2135.54,2303.17,349.76,346.87,24.26,0000 0000 0000 0000 000000
2015-02-16 06:26:28,0.12,5.33,0.00,23.37,27.20,30.17,4.84,28.16,1015.85,2030.99,1830.01,2134.92,2302.63,350.34,347.26,24.29,0000 0000 0000 0000 000000
2015-02-16 06:31:29,0.15,5.33,0.00,23.52,27.21,30.15,4.83,28.18,1015.92,2030.99,1829.25,2134.13,2301.96,350.11,346.87,24.32,0000 0000 0000 0000 000000
2015-02-16 06:36:30,0.15,5.33,0.00,23.40,27.22,30.10,4.80,28.18,1016.07,2030.99,1828.57,2133.70,2301.20,350.27,347.44,24.35,0000 0000 0000 0000 000000
2015-02-16 06:41:32,0.15,5.34,0.00,23.32,27.22,30.12,4.73,28.15,1016.12,2030.98,1827.59,2132.94,2300.40,349.79,346.94,24.38,0000 0000 0000 0000 000000
2015-02-16 06:46:33,0.17,5.34,0.00,23.50,27.24,29.97,4.76,28.16,1016.12,2030.99,1826.65,2132.10,2299.67,349.98,347.03,24.41,0000 0000 0000 0000 000000
2015-02-16 06:51:35,0.17,5.35,0.00,24.01,27.26,29.78,4.66,28.14,1016.13,2030.95,1825.71,2131.31,2298.77,349.45,345.84,24.44,0000 0000 0000 0000 000000
2015-02-16 06:56:36,0.11,5.35,0.00,24.00,27.29,29.81,4.74,28.16,1016.13,2030.79,1824.85,2130.57,2297.93,349.70,346.22,24.47,0000 0000 0000 0000 000000
2015-02-16 07:01:37,0.06,5.35,0.00,23.68,27.31,30.11,4.71,28.13,1016.13,2030.16,1823.78,2129.74,2296.99,350.27,346.99,24.50,0000 0000 0000 0000 000000
2015-02-16 07:06:39,0.17,5.36,0.00,23.47,27.32,30.46,4.76,28.21,1016.13,2030.06,1822.62,2128.97,2296.10,349.64,346.71,24.52,0000 0000 0000 0000 000000
2015-02-16 07:11:40,0.15,5.36,0.00,23.48,27.33,30.41,4.90,28.26,1016.13,2030.08,1821.82,2128.14,2295.43,350.37,347.32,24.55,0000 0000 0000 0000 000000
2015-02-16 07:16:41,0.12,5.37,0.00,23.58,27.34,30.34,4.79,28.19,1016.13,2030.05,1820.95,2127.70,2294.75,350.91,347.77,24.58,0000 0000 0000 0000 000000
2015-02-16 07:21:43,0.14,5.37,0.00,23.59,27.34,30.28,4.77,28.17,1016.14,2030.08,1820.12,2127.00,2293.98,350.52,347.35,24.61,0000 0000 0000 0000 000000
2015-02-16 07:26:44,0.19,5.38,0.00,23.34,27.35,30.27,4.84,28.37,1016.14,2030.05,1819.16,2126.14,2293.09,349.81,346.86,24.64,0000 0000 0000 0000 000000
2015-02-16 07:31:46,0.19,5.38,0.00,23.75,27.35,30.15,4.81,28.27,1016.16,2030.02,1818.14,2125.38,2292.19,350.25,346.86,24.67,0000 0000 0000 0000 000000
2015-02-16 07:36:47,0.19,5.39,0.00,24.01,27.37,29.99,4.73,28.13,1016.19,2030.01,1817.20,2124.57,2291.36,349.88,346.18,24.70,0000 0000 0000 0000 000000
2015-02-16 07:41:48,0.15,5.39,0.00,23.78,27.40,30.18,4.82,28.11,1016.34,2030.00,1816.11,2123.84,2290.47,350.20,346.93,24.73,0000 0000 0000 0000 000000
2015-02-16 07:46:49,0.17,5.40,0.00,23.47,27.40,30.48,4.75,28.14,1016.35,2029.99,1815.11,2123.05,2289.70,350.06,346.96,24.76,0000 0000 0000 0000 000000
2015-02-16 07:51:50,0.17,5.40,0.00,23.45,27.40,30.43,4.88,28.19,1016.37,2030.00,1814.14,2122.30,2289.01,351.03,348.08,24.79,0000 0000 0000 0000 000000
2015-02-16 07:56:51,0.13,5.41,0.00,23.50,27.40,30.39,4.78,28.25,1016.59,2030.00,1813.34,2121.86,2288.26,349.93,347.26,24.82,0000 0000 0000 0000 000000
2015-02-16 08:01:52,0.13,5.41,0.00,23.61,27.40,30.30,4.78,28.09,1016.59,2030.00,1812.73,2121.07,2287.71,350.20,347.05,24.85,0000 0000 0000 0000 000000
2015-02-16 08:06:53,0.16,5.42,0.00,23.43,27.40,30.25,4.82,28.26,1016.62,2030.00,1811.82,2120.47,2286.87,349.92,347.10,24.88,0000 0000 0000 0000 000000
2015-02-16 08:11:55,0.10,5.42,0.00,23.59,27.40,30.24,4.73,28.31,1016.62,2030.00,1811.03,2119.95,2286.06,349.80,346.67,24.90,0000 0000 0000 0000 000000
2015-02-16 08:16:56,0.19,5.42,0.00,23.99,27.41,30.20,4.77,28.23,1016.62,2030.00,1810.39,2119.15,2285.40,349.83,346.32,24.93,0000 0000 0000 0000 000000
2015-02-16 08:21:58,0.19,5.43,0.00,23.87,27.42,30.16,4.81,28.31,1016.63,2029.98,1809.31,2118.37,2284.61,350.00,346.61,24.96,0000 0000 0000 0000 000000
2015-02-16 08:26:59,0.16,5.43,0.00,23.53,27.43,30.43,4.77,28.28,1016.64,2029.99,1808.24,2117.61,2283.86,349.89,346.85,24.99,0000 0000 0000 0000 000000
2015-02-16 08:32:01,0.14,5.44,0.00,23.39,27.43,30.46,4.70,28.22,1016.80,2029.97,1807.35,2116.99,2283.04,349.29,346.46,25.02,0000 0000 0000 0000 000000
2015-02-16 08:37:02,0.19,5.44,0.00,23.46,27.42,30.40,4.75,28.10,1016.89,2029.99,1806.46,2116.29,2282.24,349.56,346.74,25.05,0000 0000 0000 0000 000000
2015-02-16 08:42:03,0.10,5.45,0.00,23.55,27.42,30.32,4.81,28.25,1017.03,2029.99,1805.82,2115.76,2281.54,349.77,346.96,25.08,0000 0000 0000 0000 000000
2015-02-16 08:47:05,0.14,5.45,0.00,23.43,27.40,30.21,4.83,28.24,1017.07,2029.99,1804.93,2115.01,2280.87,350.43,347.78,25.11,0000 0000 0000 0000 000000
2015-02-16 08:52:05,0.20,5.46,0.00,23.21,27.40,30.22,4.74,28.28,1017.08,2029.99,1803.90,2114.14,2279.99,349.47,347.25,25.14,0000 0000 0000 0000 000000
2015-02-16 08:57:07,0.26,5.46,0.00,23.38,27.40,30.20,4.81,28.38,1017.08,2029.98,1802.63,2113.31,2278.85,349.92,347.51,25.17,0000 0000 0000 0000 000000
2015-02-16 09:02:08,0.24,5.47,0.00,24.00,27.42,30.05,4.79,28.26,1017.09,2029.98,1801.32,2112.07,2277.71,350.27,346.90,25.20,0000 0000 0000 0000 000000
2015-02-16 09:07:10,0.24,5.48,0.00,24.00,27.44,29.99,4.77,28.23,1017.10,2029.91,1799.74,2111.03,2276.47,350.17,346.97,25.23,0000 0000 0000 0000 000000
2015-02-16 09:12:11,0.20,5.49,0.00,23.67,27.45,30.32,4.82,28.11,1017.10,2029.82,1798.46,2110.16,2275.49,350.02,347.14,25.26,0000 0000 0000 0000 000000
2015-02-16 09:17:13,0.23,5.49,0.00,23.43,27.47,30.58,4.71,28.20,1017.12,2029.74,1796.92,2109.16,2274.34,349.84,347.20,25.29,0000 0000 0000 0000 000000
2015-02-16 09:22:14,0.28,5.50,0.00,23.47,27.47,30.51,4.92,28.32,1017.12,2029.87,1795.45,2108.13,2273.25,350.38,347.70,25.32,0000 0000 0000 0000 000000
2015-02-16 09:27:16,0.19,5.51,0.00,23.47,27.45,30.46,4.81,28.27,1017.17,2029.91,1794.43,2107.26,2272.30,350.20,347.63,25.34,0000 0000 0000 0000 000000
2015-02-16 09:32:16,0.21,5.51,0.00,23.53,27.45,30.35,4.82,28.23,1017.32,2029.92,1793.33,2106.48,2271.39,349.95,347.19,25.37,0000 0000 0000 0000 000000
2015-02-16 09:37:18,0.21,5.52,0.00,23.48,27.43,30.30,4.81,28.18,1017.41,2029.93,1792.12,2105.51,2270.33,349.47,346.67,25.40,0000 0000 0000 0000 000000
2015-02-16 09:42:19,0.26,5.53,0.00,23.31,27.42,30.28,4.72,28.48,1017.57,2029.91,1790.77,2104.41,2269.14,349.39,347.02,25.43,0000 0000 0000 0000 000000
2015-02-16 09:47:20,0.27,5.54,0.00,23.55,27.42,30.23,4.79,28.20,1017.35,2029.88,1789.20,2103.22,2267.76,349.88,347.36,25.46,0000 0000 0000 0000 000000
2015-02-16 09:52:22,0.26,5.54,0.00,23.98,27.45,30.04,4.73,28.27,1017.48,2029.61,1787.51,2101.84,2266.39,349.43,346.36,25.49,0000 0000 0000 0000 000000
2015-02-16 09:57:23,0.22,5.55,0.00,23.88,27.45,30.08,4.77,28.23,1017.55,2029.35,1785.86,2100.64,2265.07,349.75,346.74,25.52,0000 0000 0000 0000 000000
2015-02-16 10:02:24,0.26,5.56,0.00,23.55,27.47,30.45,4.75,28.10,1017.54,2029.17,1784.20,2099.42,2263.73,349.79,347.14,25.55,0000 0000 0000 0000 000000
2015-02-16 10:07:26,0.34,5.57,0.00,23.42,27.47,30.57,4.81,28.25,1017.54,2029.26,1782.39,2098.23,2262.47,350.34,347.96,25.58,0000 0000 0000 0000 000000
2015-02-16 10:12:27,0.30,5.58,0.00,23.46,27.47,30.49,4.76,28.24,1017.56,2029.55,1780.96,2097.21,2261.38,350.29,347.66,25.61,0000 0000 0000 0000 000000
2015-02-16 10:17:29,0.20,5.58,0.00,23.45,27.45,30.39,4.76,28.22,1017.58,2029.49,1779.57,2096.23,2260.31,349.74,347.10,25.64,0000 0000 0000 0000 000000
2015-02-16 10:22:30,0.36,5.59,0.00,23.52,27.45,30.33,4.75,28.15,1017.58,2029.82,1778.05,2095.02,2259.01,349.44,346.83,25.67,0000 0000 0000 0000 000000
2015-02-16 10:27:31,0.33,5.60,0.00,23.39,27.43,30.31,4.76,28.16,1017.59,2029.93,1776.40,2093.73,2257.63,349.62,347.43,25.70,0000 0000 0000 0000 000000
2015-02-16 10:32:32,0.31,5.61,0.00,23.20,27.42,30.25,4.69,28.22,1017.59,2029.89,1774.59,2092.41,2256.19,349.54,347.41,25.73,0000 0000 0000 0000 000000
2015-02-16 10:37:33,0.28,5.62,0.00,23.64,27.43,30.23,4.74,28.24,1017.60,2029.58,1772.73,2090.85,2254.61,350.21,347.29,25.75,0000 0000 0000 0000 000000
2015-02-16 10:42:34,0.28,5.63,0.00,24.01,27.45,30.08,4.74,28.32,1017.62,2029.21,1770.97,2089.51,2252.98,349.85,346.73,25.78,0000 0000 0000 0000 000000
2015-02-16 10:47:36,0.46,5.64,0.00,23.81,27.46,30.22,4.75,28.17,1017.61,2029.10,1768.41,2087.52,2250.98,349.92,346.76,25.81,0000 0000 0000 0000 000000
2015-02-16 10:52:37,0.62,5.66,0.00,23.46,27.47,30.57,4.78,28.38,1017.61,2029.10,1765.20,2085.13,2248.43,350.00,347.70,25.84,0000 0000 0000 0000 000000
2015-02-16 10:57:38,0.56,5.67,0.00,23.39,27.47,30.60,4.83,28.35,1017.64,2029.16,1762.05,2082.76,2245.96,350.53,348.06,25.87,0000 0000 0000 0000 000000
2015-02-16 11:02:39,0.62,5.69,0.00,23.44,27.47,30.49,4.85,28.32,1017.96,2029.54,1759.09,2080.57,2243.62,350.24,347.92,25.90,0000 0000 0000 0000 000000
2015-02-16 11:07:40,0.53,5.71,0.00,23.50,27.46,30.40,4.71,28.19,1018.06,2029.84,1756.44,2078.52,2241.47,349.79,347.38,25.93,0000 0000 0000 0000 000000
2015-02-16 11:12:42,0.44,5.72,0.00,23.45,27.45,30.33,4.78,28.14,1018.07,2029.87,1754.11,2076.59,2239.41,349.99,347.57,25.96,0000 0000 0000 0000 000000
2015-02-16 11:17:43,0.48,5.73,0.00,23.22,27.45,30.29,4.84,28.32,1018.04,2029.92,1751.71,2074.58,2237.38,349.91,347.83,25.99,0000 0000 0000 0000 000000
2015-02-16 11:22:44,0.52,5.75,0.00,23.20,27.45,30.29,4.82,28.43,1018.06,2029.79,1748.90,2072.28,2235.00,349.69,347.67,26.02,0000 0000 0000 0000 000000
2015-02-16 11:27:45,0.46,5.76,0.30,23.82,27.45,30.14,4.75,28.25,1018.08,2029.41,1745.96,2069.98,2232.49,350.15,347.49,26.05,0000 0000 0000 0000 000000
2015-02-16 11:32:46,0.44,5.78,1.00,24.07,27.46,30.02,4.76,28.23,1018.08,2029.17,1743.39,2067.84,2230.26,349.97,346.87,26.08,0000 0000 0000 0000 000000
2015-02-16 11:37:47,0.45,5.79,1.00,23.82,27.48,30.22,4.83,28.20,1018.08,2029.08,1740.93,2065.89,2228.23,350.27,347.53,26.11,0000 0000 0000 0000 000000
2015-02-16 11:42:48,0.47,5.80,1.00,23.51,27.50,30.58,4.81,28.26,1018.08,2029.01,1738.46,2063.91,2226.06,349.94,347.47,26.14,0000 0000 0000 0000 000000
2015-02-16 11:47:50,0.48,5.82,1.00,23.44,27.50,30.62,4.80,28.32,1018.08,2029.00,1735.94,2061.93,2224.00,350.35,348.02,26.16,0000 0000 0000 0000 000000
2015-02-16 11:52:51,0.54,5.83,1.00,23.48,27.50,30.54,4.88,28.26,1018.08,2029.02,1733.13,2059.77,2221.69,350.31,347.82,26.19,0000 0000 0000 0000 000000
2015-02-16 11:57:52,0.64,5.85,0.67,23.57,27.48,30.45,4.81,28.27,1018.08,2029.03,1729.88,2057.21,2219.00,350.10,347.59,26.22,0000 0000 0000 0000 000000
2015-02-16 12:02:53,0.56,5.87,0.00,23.67,27.47,30.34,4.80,28.20,1018.09,2029.03,1726.84,2054.73,2216.34,350.13,347.48,26.25,0000 0000 0000 0000 000000
2015-02-16 12:07:55,0.48,5.88,0.00,23.58,27.47,30.34,4.81,28.22,1018.12,2029.05,1724.37,2052.67,2214.12,349.85,347.20,26.28,0000 0000 0000 0000 000000
2015-02-16 12:12:56,0.40,5.90,0.00,23.98,27.47,30.33,4.84,28.37,1018.24,2029.11,1722.11,2051.05,2212.43,349.86,347.02,26.31,0000 0000 0000 0000 000000
2015-02-16 12:17:57,0.26,5.91,0.00,24.04,27.47,30.22,4.76,28.26,1018.37,2029.07,1720.53,2049.84,2211.21,349.72,346.54,26.34,0000 0000 0000 0000 000000
2015-02-16 12:22:58,0.20,5.91,0.00,23.72,27.47,30.37,4.80,28.26,1018.50,2029.05,1719.32,2048.98,2210.14,350.08,347.52,26.37,0000 0000 0000 0000 000000
2015-02-16 12:28:00,0.21,5.92,0.00,23.45,27.47,30.54,4.89,28.39,1018.49,2029.04,1718.20,2048.08,2209.26,350.24,347.98,26.40,0000 0000 0000 0000 000000
2015-02-16 12:33:02,0.21,5.92,0.00,23.43,27.47,30.49,4.71,28.33,1018.42,2029.05,1717.27,2047.22,2208.53,349.77,347.46,26.43,0000 0000 0000 0000 000000
2015-02-16 12:38:03,0.10,5.93,0.00,23.50,27.45,30.36,4.72,28.29,1018.29,2029.07,1716.44,2046.99,2207.91,349.91,347.59,26.46,0000 0000 0000 0000 000000
2015-02-16 12:43:04,0.15,5.93,0.00,23.53,27.43,30.25,4.75,28.32,1018.51,2029.12,1715.93,2046.28,2207.08,350.03,347.74,26.49,0000 0000 0000 0000 000000
2015-02-16 12:48:05,0.15,5.94,0.00,23.26,27.42,30.26,4.75,28.49,1018.57,2029.28,1715.08,2045.92,2206.47,349.83,348.00,26.52,0000 0000 0000 0000 000000
2015-02-16 12:53:06,0.16,5.94,0.00,23.27,27.42,30.24,4.79,28.45,1018.57,2029.14,1714.13,2045.08,2205.64,349.92,348.00,26.55,0000 0000 0000 0000 000000
2015-02-16 12:58:08,0.18,5.95,0.00,23.85,27.43,30.21,4.75,28.29,1018.57,2029.07,1713.32,2044.32,2204.83,349.97,347.16,26.57,0000 0000 0000 0000 000000
2015-02-16 13:03:09,0.19,5.95,0.00,23.95,27.45,30.08,4.78,28.20,1018.58,2029.05,1712.41,2043.56,2203.90,350.48,347.87,26.60,0000 0000 0000 0000 000000